Regional Weather Roundup
Issued by NWS

Home | Current Version | Previous Version | Graphics & Text | Print | Product List | Glossary On
Versions: 1 2 3 4 5 6 7 8 9 10 11 12 13 14 15 16 17 18 19 20 21 22 23 24 25 26 27 28 29 30 31 32 33 34 35 36 37 38 39 40 41 42 43 44 45 46 47 48 49 50
232
ASUS45 KCYS 260310
RWRWY

WYOMING REGIONAL WEATHER ROUNDUP
NATIONAL WEATHER SERVICE CHEYENNE WY
900 PM MDT THU AUG 25 2016

NOTE:  "FAIR" INDICATES FEW OR NO CLOUDS BELOW 12,000 FEET
WITH NO SIGNIFICANT WEATHER AND/OR OBSTRUCTIONS TO VISIBILITY.

WYZ001-260400-
YELLOWSTONE NATIONAL PARK

CITY           SKY/WX    TMP DP  RH WIND       PRES   REMARKS
LK YELLOWSTONE   N/A     50  28  42 VRB3      30.27R
W YELLOWSTONE  NOT AVBL

$$
WYZ002>013-054>058-071-098>099-260400-
NORTHERN WYOMING

CITY           SKY/WX    TMP DP  RH WIND       PRES   REMARKS
JACKSON        FAIR      55  36  47 W3        30.17R
CODY           MOCLDY    57  41  54 N5        30.18S
GREYBULL       MOCLDY    67  36  31 CALM      30.12S
WORLAND        CLOUDY    56  49  77 S6        30.14R
SHERIDAN       FAIR      56  44  64 CALM      30.16R
BUFFALO        MOCLDY    58  41  53 S3        30.22R
GILLETTE       FAIR      53  39  59 SE7       30.19R
HULETT         FAIR      54  37  54 SE8       30.23R
NEWCASTLE      FAIR      55  41  58 SE9       30.23R

$$
WYZ014>020-022>026-101>103-260400-
CENTRAL WYOMING

CITY           SKY/WX    TMP DP  RH WIND       PRES   REMARKS
BIG PINEY      FAIR      49  37  63 NE3       30.24R
PINEDALE       FAIR      50  32  50 CALM      30.25S
DUBOIS         CLOUDY    48  36  61 S3        30.25R
LANDER         FAIR      54  45  71 W8        30.18S
RIVERTON       FAIR      52  48  86 E7        30.19S
CASPER         CLOUDY    57  46  66 NE14      30.21R
DOUGLAS        FAIR      55  46  71 E8        30.22R

$$
WYZ021-027>030-104>119-260400-
SOUTHERN WYOMING

CITY           SKY/WX    TMP DP  RH WIND       PRES   REMARKS
EVANSTON       FAIR      60  18  19 W10       30.18S
FORT BRIDGER   FAIR      58  32  37 SE8       30.22R
ROCK SPRINGS   MOCLDY    59  31  34 VRB3      30.20R
DIXON          FAIR      59  32  35 CALM      30.24R
RAWLINS        FAIR      54  41  61 NE5       30.21S
SARATOGA       FAIR      54  39  58 CALM      30.23S
LARAMIE        FAIR      53  40  61 S16       30.26R
CHEYENNE       FAIR      57  44  62 S14       30.25S
TORRINGTON     FAIR      61  44  53 NE10      30.18R
PINE BLUFFS    FAIR      55  41  58 S6        30.23R

$$




USA.gov is the U.S. government's official web portal to all federal, state and local government web resources and services.